This is the latest recevied weather packets stored in our database for station/object N1YZ. If no packets are shown the sender has not sent any weather packets the latest 10 day(s).
| Time | Temp. | Humidity | Pressure | Rain* | Wind** | Luminosity | Snow |
|---|---|---|---|---|---|---|---|
| 1787924026 | 23.89° C | 99% | 1036.9 hPa | 0 mm | - | 35 W/m² | - |
| 1787923721 | 23.89° C | 99% | 1037 hPa | 0 mm | - | 35 W/m² | - |
| 1787923416 | 23.89° C | 99% | 1036.8 hPa | 0 mm | - | 40 W/m² | - |
| 1787923113 | 23.89° C | 99% | 1037.1 hPa | 0 mm | - | 46 W/m² | - |
| 1787922806 | 23.33° C | 99% | 1036.8 hPa | 0 mm | - | 40 W/m² | - |
| 1787922500 | 23.33° C | 99% | 1037.1 hPa | 0 mm | - | 36 W/m² | - |
| 1787922200 | 23.33° C | 99% | 1036.8 hPa | 0 mm | - | 34 W/m² | - |
| 1787921897 | 23.33° C | 99% | 1037 hPa | 0 mm | - | 33 W/m² | - |
| 1787921592 | 23.33° C | 99% | 1036.9 hPa | 0 mm | - | 33 W/m² | - |
| 1787921291 | 23.33° C | 99% | 1036.9 hPa | 0 mm | - | 29 W/m² | - |
| 1787920987 | 23.33° C | 99% | 1036.9 hPa | 0 mm | - | 25 W/m² | - |
| 1787920682 | 22.78° C | 99% | 1036.7 hPa | 0 mm | - | 23 W/m² | - |
| 1787920381 | 22.78° C | 99% | 1036.8 hPa | 0 mm | - | 21 W/m² | - |
| 1787920084 | 22.78° C | 99% | 1036.8 hPa | 0 mm | - | 19 W/m² | - |
| 1787919774 | 22.78° C | 99% | 1036.8 hPa | 0 mm | - | 18 W/m² | - |
| 1787919473 | 22.78° C | 99% | 1036.8 hPa | 0 mm | - | 16 W/m² | - |
| 1787919169 | 22.78° C | 99% | 1036.7 hPa | 0 mm | - | 15 W/m² | - |
| 1787918868 | 22.78° C | 99% | 1036.6 hPa | 0 mm | - | 14 W/m² | - |
| 1787918564 | 22.78° C | 99% | 1036.7 hPa | 0 mm | - | 13 W/m² | - |
| 1787918261 | 22.78° C | 99% | 1036.5 hPa | 0 mm | - | 11 W/m² | - |
| 1787917959 | 22.78° C | 99% | 1036.4 hPa | 0 mm | - | 10 W/m² | - |
| 1787917651 | 22.78° C | 99% | 1036.3 hPa | 0 mm | - | 8 W/m² | - |
| 1787917348 | 22.78° C | 99% | 1036.1 hPa | 0 mm | - | 7 W/m² | - |
| 1787917048 | 22.78° C | 99% | 1036.1 hPa | 0 mm | - | 6 W/m² | - |
| 1787916742 | 22.78° C | 99% | 1036.1 hPa | 0 mm | - | 4 W/m² | - |
* Rain latest hour (hover to see other rain measurements)
** Current wind speed in m/s (hover to see current wind gust speed)